| time (UTC) | temp F | wind direction | speed MPH | gust MPH | rain 1hr in | rain 24hr in | rain mn in | humidity % | barometer mb |
| 20260507031918 | 53 | 0.0 | 0.0 | 0.00 | 0.00 | 0.00 | 55 | 1019.9 | |
| 20260507030918 | 54 | 0.0 | 0.0 | 0.00 | 0.00 | 0.00 | 54 | 1019.8 | |
| 20260507025917 | 54 | 0.0 | 1.0 | 0.00 | 0.00 | 0.00 | 54 | 1019.5 | |
| 20260507024918 | 54 | 0 | 1.0 | 2.0 | 0.00 | 0.00 | 0.00 | 53 | 1019.4 |
| 20260507023918 | 55 | 45 | 1.0 | 3.0 | 0.00 | 0.00 | 0.00 | 52 | 1019.2 |
| 20260507022917 | 55 | 45 | 2.0 | 3.0 | 0.00 | 0.00 | 0.00 | 51 | 1019.1 |
| 20260507021919 | 56 | 15 | 3.0 | 0.0 | 0.00 | 0.00 | 0.00 | 50 | 1019.2 |
| 20260507020917 | 56 | 23 | 4.0 | 5.0 | 0.00 | 0.00 | 0.00 | 49 | 1018.9 |
| 20260507015918 | 57 | 23 | 4.0 | 5.0 | 0.00 | 0.00 | 0.00 | 49 | 1018.8 |
| 20260507014918 | 57 | 23 | 4.0 | 7.0 | 0.00 | 0.00 | 0.00 | 48 | 1018.7 |
| 20260507013918 | 58 | 23 | 3.0 | 5.0 | 0.00 | 0.00 | 0.00 | 47 | 1018.6 |
| 20260507012918 | 59 | 23 | 5.0 | 7.0 | 0.00 | 0.00 | 0.00 | 46 | 1018.5 |
| 20260507011918 | 59 | 45 | 4.0 | 6.0 | 0.00 | 0.00 | 0.00 | 46 | 1018.2 |
| 20260507010917 | 60 | 23 | 4.0 | 7.0 | 0.00 | 0.00 | 0.00 | 45 | 1018.3 |
| 20260507005918 | 60 | 23 | 4.0 | 6.0 | 0.00 | 0.00 | 0.00 | 45 | 1018.3 |
| 20260507004918 | 61 | 23 | 5.0 | 8.0 | 0.00 | 0.00 | 0.00 | 45 | 1018.2 |
| 20260507003917 | 61 | 23 | 3.0 | 7.0 | 0.00 | 0.00 | 0.00 | 45 | 1018.3 |
| 20260507002938 | 61 | 23 | 4.0 | 7.0 | 0.00 | 0.00 | 0.00 | 44 | 1018.2 |
| 20260507001918 | 62 | 0 | 3.0 | 6.0 | 0.00 | 0.00 | 0.00 | 44 | 1018.2 |
| 20260507000917 | 63 | 45 | 5.0 | 8.0 | 0.00 | 0.00 | 0.00 | 42 | 1018.1 |
| 20260506235938 | 63 | 0 | 5.0 | 11.0 | 0.00 | 0.00 | 0.00 | 43 | 1018.1 |
| 20260506234918 | 64 | 23 | 9.0 | 11.0 | 0.00 | 0.00 | 0.00 | 42 | 1018.1 |
| 20260506233918 | 64 | 45 | 4.0 | 8.0 | 0.00 | 0.00 | 0.00 | 40 | 1018.0 |
| 20260506232918 | 65 | 45 | 5.0 | 7.0 | 0.00 | 0.00 | 0.00 | 41 | 1017.8 |
| 20260506231918 | 65 | 0 | 3.0 | 5.0 | 0.00 | 0.00 | 0.00 | 42 | 1017.7 |
| 20260506230917 | 65 | 23 | 7.0 | 10.0 | 0.00 | 0.00 | 0.00 | 41 | 1017.7 |
| 20260506225918 | 66 | 23 | 3.0 | 5.0 | 0.00 | 0.00 | 0.00 | 39 | 1017.7 |
| 20260506224918 | 66 | 90 | 6.0 | 11.0 | 0.00 | 0.00 | 0.00 | 40 | 1017.6 |
| 20260506223938 | 66 | 90 | 9.0 | 12.0 | 0.00 | 0.00 | 0.00 | 40 | 1017.4 |
| 20260506222917 | 67 | 23 | 6.0 | 9.0 | 0.00 | 0.00 | 0.00 | 39 | 1017.4 |
| 20260506221917 | 65 | 0 | 6.0 | 10.0 | 0.00 | 0.00 | 0.00 | 41 | 1017.1 |
| 20260506220938 | 65 | 45 | 4.0 | 8.0 | 0.00 | 0.00 | 0.00 | 41 | 1017.1 |
| 20260506215939 | 65 | 45 | 8.0 | 12.0 | 0.00 | 0.00 | 0.00 | 41 | 1017.2 |
| 20260506214918 | 66 | 68 | 7.0 | 11.0 | 0.00 | 0.00 | 0.00 | 41 | 1017.2 |
| 20260506213918 | 65 | 0 | 10.0 | 14.0 | 0.00 | 0.00 | 0.00 | 42 | 1017.4 |
| 20260506212938 | 65 | 45 | 6.0 | 10.0 | 0.00 | 0.00 | 0.00 | 44 | 1017.4 |
| 20260506211918 | 65 | 0 | 9.0 | 12.0 | 0.00 | 0.00 | 0.00 | 42 | 1017.6 |
| 20260506210917 | 65 | 0 | 9.0 | 12.0 | 0.00 | 0.00 | 0.00 | 44 | 1017.8 |
| 20260506205918 | 64 | 23 | 10.0 | 13.0 | 0.00 | 0.00 | 0.00 | 43 | 1017.8 |
| 20260506204937 | 65 | 338 | 6.0 | 12.0 | 0.00 | 0.00 | 0.00 | 43 | 1017.9 |
| 20260506203959 | 65 | 90 | 9.0 | 15.0 | 0.00 | 0.00 | 0.00 | 46 | 1018.0 |
| 20260506202918 | 64 | 23 | 9.0 | 12.0 | 0.00 | 0.00 | 0.00 | 44 | 1018.0 |
| 20260506201917 | 64 | 23 | 5.0 | 8.0 | 0.00 | 0.00 | 0.00 | 47 | 1018.1 |
| 20260506200917 | 63 | 0 | 8.0 | 14.0 | 0.00 | 0.00 | 0.00 | 48 | 1018.1 |
| 20260506195918 | 63 | 23 | 8.0 | 11.0 | 0.00 | 0.00 | 0.00 | 46 | 1018.2 |
| 20260506194918 | 63 | 23 | 10.0 | 15.0 | 0.00 | 0.00 | 0.00 | 47 | 1018.2 |
| 20260506193918 | 61 | 338 | 4.0 | 8.0 | 0.00 | 0.00 | 0.00 | 49 | 1018.1 |
| 20260506192917 | 61 | 45 | 6.0 | 9.0 | 0.00 | 0.00 | 0.00 | 48 | 1018.4 |
| 20260506192018 | 61 | 23 | 4.0 | 5.0 | 0.00 | 0.00 | 0.00 | 48 | 1018.5 |
| 20260506190917 | 60 | 23 | 10.0 | 16.0 | 0.00 | 0.00 | 0.00 | 49 | 1018.4 |
| 20260506185938 | 60 | 23 | 10.0 | 15.0 | 0.00 | 0.00 | 0.00 | 49 | 1018.5 |
| 20260506184917 | 60 | 45 | 4.0 | 6.0 | 0.00 | 0.00 | 0.00 | 48 | 1018.7 |
| 20260506183917 | 61 | 45 | 9.0 | 14.0 | 0.00 | 0.00 | 0.00 | 49 | 1018.8 |
| 20260506182919 | 61 | 0 | 5.0 | 8.0 | 0.00 | 0.00 | 0.00 | 49 | 1018.9 |
| 20260506181938 | 61 | 90 | 6.0 | 9.0 | 0.00 | 0.00 | 0.00 | 49 | 1019.0 |
| 20260506180918 | 61 | 68 | 5.0 | 8.0 | 0.00 | 0.00 | 0.00 | 50 | 1019.1 |
| 20260506175918 | 61 | 68 | 9.0 | 14.0 | 0.00 | 0.00 | 0.00 | 47 | 1019.2 |
| 20260506174919 | 63 | 68 | 4.0 | 8.0 | 0.00 | 0.00 | 0.00 | 47 | 1019.2 |
| 20260506173938 | 62 | 90 | 9.0 | 15.0 | 0.00 | 0.00 | 0.00 | 50 | 1019.2 |
| 20260506172938 | 60 | 68 | 10.0 | 14.0 | 0.00 | 0.00 | 0.00 | 50 | 1019.4 |
| 20260506171918 | 60 | 45 | 10.0 | 12.0 | 0.00 | 0.00 | 0.00 | 49 | 1019.3 |
| 20260506170917 | 59 | 68 | 8.0 | 12.0 | 0.00 | 0.00 | 0.00 | 50 | 1019.4 |
| 20260506165919 | 60 | 45 | 8.0 | 12.0 | 0.00 | 0.00 | 0.00 | 48 | 1019.4 |
| 20260506164917 | 60 | 45 | 9.0 | 14.0 | 0.00 | 0.00 | 0.00 | 48 | 1019.2 |
| 20260506163919 | 60 | 68 | 12.0 | 17.0 | 0.00 | 0.00 | 0.00 | 49 | 1019.5 |
| 20260506162918 | 59 | 90 | 13.0 | 21.0 | 0.00 | 0.00 | 0.00 | 50 | 1019.5 |
| 20260506161919 | 58 | 45 | 7.0 | 13.0 | 0.00 | 0.00 | 0.00 | 51 | 1019.4 |
| 20260506160918 | 57 | 68 | 15.0 | 21.0 | 0.00 | 0.00 | 0.00 | 51 | 1019.5 |
| 20260506155918 | 57 | 45 | 8.0 | 13.0 | 0.00 | 0.00 | 0.00 | 52 | 1019.3 |
| 20260506154917 | 56 | 45 | 9.0 | 14.0 | 0.00 | 0.00 | 0.00 | 53 | 1019.3 |
| 20260506153938 | 56 | 68 | 8.0 | 16.0 | 0.00 | 0.00 | 0.00 | 54 | 1019.3 |
| 20260506152919 | 55 | 90 | 9.0 | 15.0 | 0.00 | 0.00 | 0.00 | 57 | 1018.9 |
| 20260506151919 | 54 | 23 | 9.0 | 15.0 | 0.00 | 0.00 | 0.00 | 57 | 1018.8 |
| 20260506150958 | 53 | 23 | 8.0 | 12.0 | 0.00 | 0.00 | 0.00 | 60 | 1018.9 |
| 20260506145939 | 52 | 45 | 13.0 | 17.0 | 0.00 | 0.00 | 0.00 | 60 | 1018.8 |
| 20260506144917 | 52 | 45 | 8.0 | 12.0 | 0.00 | 0.00 | 0.00 | 63 | 1018.7 |
| 20260506143920 | 51 | 23 | 9.0 | 14.0 | 0.00 | 0.00 | 0.00 | 64 | 1018.5 |
| 20260506142918 | 51 | 23 | 9.0 | 12.0 | 0.00 | 0.00 | 0.00 | 65 | 1018.2 |
| 20260506141917 | 50 | 45 | 8.0 | 13.0 | 0.00 | 0.00 | 0.00 | 66 | 1018.2 |
| 20260506140919 | 50 | 45 | 7.0 | 12.0 | 0.00 | 0.00 | 0.00 | 67 | 1018.3 |
| 20260506135918 | 49 | 0 | 11.0 | 16.0 | 0.00 | 0.00 | 0.00 | 67 | 1018.3 |
| 20260506134919 | 49 | 23 | 10.0 | 13.0 | 0.00 | 0.00 | 0.00 | 68 | 1018.2 |
| 20260506133918 | 49 | 23 | 11.0 | 15.0 | 0.00 | 0.00 | 0.00 | 68 | 1018.4 |
| 20260506132920 | 49 | 0 | 12.0 | 18.0 | 0.00 | 0.00 | 0.00 | 69 | 1018.4 |
| 20260506131918 | 49 | 0 | 7.0 | 12.0 | 0.00 | 0.00 | 0.00 | 70 | 1018.4 |
| 20260506130919 | 49 | 0 | 8.0 | 10.0 | 0.00 | 0.00 | 0.00 | 70 | 1018.5 |
| 20260506125919 | 49 | 23 | 8.0 | 12.0 | 0.00 | 0.00 | 0.00 | 69 | 1018.3 |
| 20260506124918 | 48 | 23 | 8.0 | 10.0 | 0.00 | 0.00 | 0.00 | 70 | 1018.2 |
| 20260506123919 | 48 | 23 | 8.0 | 9.0 | 0.00 | 0.00 | 0.00 | 70 | 1018.0 |
| 20260506122917 | 48 | 23 | 8.0 | 10.0 | 0.00 | 0.00 | 0.00 | 70 | 1017.8 |
| 20260506121938 | 48 | 23 | 6.0 | 9.0 | 0.00 | 0.00 | 0.00 | 70 | 1017.5 |
| 20260506120917 | 48 | 23 | 6.0 | 9.0 | 0.00 | 0.00 | 0.00 | 70 | 1017.2 |
| 20260506115919 | 48 | 0 | 6.0 | 11.0 | 0.00 | 0.00 | 0.00 | 70 | 1017.0 |
| 20260506114939 | 48 | 23 | 9.0 | 11.0 | 0.00 | 0.00 | 0.00 | 70 | 1017.0 |
| 20260506113919 | 48 | 23 | 5.0 | 8.0 | 0.00 | 0.00 | 0.00 | 70 | 1017.0 |
| 20260506112917 | 48 | 0 | 6.0 | 10.0 | 0.00 | 0.00 | 0.00 | 70 | 1016.8 |
| 20260506111919 | 48 | 23 | 6.0 | 9.0 | 0.00 | 0.00 | 0.00 | 70 | 1016.7 |
| 20260506110917 | 48 | 23 | 5.0 | 8.0 | 0.00 | 0.00 | 0.00 | 69 | 1016.3 |
| 20260506105919 | 48 | 23 | 6.0 | 10.0 | 0.00 | 0.00 | 0.00 | 69 | 1016.5 |
| 20260506104918 | 48 | 23 | 7.0 | 10.0 | 0.00 | 0.00 | 0.00 | 68 | 1016.4 |
| 20260506103919 | 48 | 45 | 8.0 | 13.0 | 0.00 | 0.00 | 0.00 | 68 | 1016.9 |
| 20260506102919 | 49 | 0 | 6.0 | 9.0 | 0.00 | 0.00 | 0.00 | 68 | 1017.5 |
| 20260506101919 | 49 | 0 | 9.0 | 11.0 | 0.00 | 0.00 | 0.00 | 68 | 1017.1 |
| 20260506100919 | 49 | 23 | 5.0 | 8.0 | 0.00 | 0.00 | 0.00 | 67 | 1017.0 |
| 20260506095917 | 49 | 23 | 4.0 | 6.0 | 0.00 | 0.00 | 0.00 | 67 | 1016.9 |
| 20260506094919 | 49 | 23 | 7.0 | 11.0 | 0.00 | 0.00 | 0.00 | 67 | 1016.7 |
| 20260506093918 | 49 | 0 | 7.0 | 10.0 | 0.00 | 0.00 | 0.00 | 67 | 1016.4 |
| 20260506092919 | 49 | 0 | 7.0 | 9.0 | 0.00 | 0.00 | 0.00 | 67 | 1016.1 |
| 20260506091919 | 49 | 23 | 7.0 | 9.0 | 0.00 | 0.00 | 0.00 | 66 | 1015.7 |
| 20260506090919 | 49 | 23 | 6.0 | 10.0 | 0.00 | 0.00 | 0.00 | 66 | 1015.8 |
| 20260506085919 | 49 | 0 | 9.0 | 11.0 | 0.00 | 0.00 | 0.00 | 66 | 1015.5 |
| 20260506084917 | 49 | 0 | 9.0 | 13.0 | 0.00 | 0.00 | 0.00 | 65 | 1015.6 |
| 20260506083919 | 49 | 0 | 9.0 | 12.0 | 0.00 | 0.00 | 0.00 | 64 | 1015.4 |
| 20260506082919 | 49 | 0 | 11.0 | 13.0 | 0.00 | 0.00 | 0.00 | 64 | 1015.2 |
| 20260506081918 | 49 | 0 | 8.0 | 10.0 | 0.00 | 0.00 | 0.00 | 64 | 1014.9 |
| 20260506080919 | 49 | 0 | 10.0 | 13.0 | 0.00 | 0.00 | 0.00 | 64 | 1014.7 |
| 20260506072919 | 49 | 23 | 4.0 | 5.0 | 0.00 | 0.00 | 0.00 | 64 | 1014.3 |
| 20260506071920 | 49 | 23 | 8.0 | 12.0 | 0.00 | 0.00 | 0.00 | 63 | 1014.1 |
| 20260506070919 | 49 | 45 | 4.0 | 7.0 | 0.00 | 0.00 | 0.00 | 63 | 1014.0 |
| 20260506062000 | 49 | 0 | 7.0 | 11.0 | 0.00 | 0.00 | 0.00 | 63 | 1014.3 |
| 20260506060919 | 49 | 23 | 5.0 | 10.0 | 0.00 | 0.00 | 0.00 | 63 | 1014.3 |
| 20260506050919 | 49 | 45 | 9.0 | 11.0 | 0.00 | 0.00 | 0.00 | 61 | 1014.0 |
| 20260506044918 | 49 | 23 | 6.0 | 9.0 | 0.00 | 0.00 | 0.00 | 62 | 1013.7 |
| 20260506043918 | 49 | 45 | 6.0 | 9.0 | 0.00 | 0.00 | 0.00 | 63 | 1013.9 |
| 20260506042918 | 49 | 45 | 8.0 | 14.0 | 0.00 | 0.00 | 0.00 | 63 | 1014.0 |
| 20260506041918 | 49 | 45 | 7.0 | 11.0 | 0.00 | 0.00 | 0.00 | 63 | 1014.1 |
| 20260506040918 | 49 | 45 | 10.0 | 14.0 | 0.00 | 0.00 | 0.00 | 63 | 1013.9 |
| 20260506035918 | 49 | 68 | 8.0 | 14.0 | 0.00 | 0.00 | 0.00 | 64 | 1013.9 |
| 20260506034918 | 49 | 23 | 11.0 | 14.0 | 0.00 | 0.00 | 0.00 | 65 | 1013.8 |
| 20260506033938 | 49 | 23 | 8.0 | 13.0 | 0.00 | 0.00 | 0.00 | 66 | 1013.7 |
| 20260506032919 | 49 | 23 | 9.0 | 13.0 | 0.00 | 0.00 | 0.00 | 67 | 1013.8 |